Location: Goettingen
(51.5300°N, 9.9433°E)
Time: 07:31:44
(UTC+01:00)

ISS - Pass Details

Date: 15 January 2018
Orbit: 402 x 407 km, 51.6° (Epoch: 21 January)

Event Time Altitude Azimuth Distance (km) Brightness Sun altitude
Exits shadow 05:26:33 11° 152° (SSE) 1,409 -0.8 -26.1°
Drops below altitude 10° 05:26:41 10° 150° (SSE) 1,461 -0.7 -26.1°
Sets 05:28:56 0° 139° (SE) 2,319 0.6 -25.7°
